Location: Vancouver
(49.2500°N, 123.1330°W)
Time: 00:08:36
(UTC-08:00)

ISS - Visible Passes

Search period start: 24 February 2017 00:00
Search period end: 06 March 2017 00:00
Orbit: 399 x 408 km, 51.6° (Epoch: 24 February)

Date Brightness Start Highest point End Pass type
(mag) Time Alt. Az. Time Alt. Az. Time Alt. Az.
01 Mar -0.4 06:12:46 10° S 06:14:45 15° SE 06:16:44 10° E visible
03 Mar -1.4 06:02:50 10° SSW 06:05:42 28° SE 06:08:35 10° E visible
04 Mar -0.8 05:11:00 10° S 05:13:16 17° SE 05:15:33 10° E visible
05 Mar -0.3 04:20:34 10° SE 04:20:54 10° SE 04:21:34 10° ESE visible
05 Mar -2.6 05:53:32 10° SW 05:56:44 50° SSE 05:59:57 10° ENE visible
